[TLELIST] Archives

 

[list_settings.list_name] Current TLEs

April 10th 2012 PST

HST 1 20580U 90037B 12098.84464576 .00002130 00000-0 14474-3 0 9784 2 20580 028.4693 243.8225 0003475 034.5412 325.5402 15.02352992 4141 ISS (ZARYA) 1 25544U 98067A 12101.48738383 .00012119 00000-0 16374-3 0 3452 2 25544 051.6422 101.2557 0007867 259.4171 202.0312 15.58175408767464 CXO 1 25867U 99040B 12100.16666667 -.00000006 00000-0 00000+0 0 7217 2 25867 071.9039 009.8463 8755768 277.9852 358.3741 00.37808874 8896 ____________________________________________________________________ These 2-Line ...Continue Reading

[list_settings.list_name] Current TLEs

April 9th 2012 PST

HST 1 20580U 90037B 12098.84464576 .00002130 00000-0 14474-3 0 9784 2 20580 028.4693 243.8225 0003475 034.5412 325.5402 15.02352992 4141 ISS (ZARYA) 1 25544U 98067A 12100.47224741 .00012783 00000-0 17248-3 0 3388 2 25544 051.6421 106.3483 0007857 256.2810 267.0927 15.58152447767305 CXO 1 25867U 99040B 12100.16666667 -.00000006 00000-0 00000+0 0 7217 2 25867 071.9039 009.8463 8755768 277.9852 358.3741 00.37808874 8896 ____________________________________________________________________ These 2-Line ...Continue Reading

[list_settings.list_name] Current TLEs

April 8th 2012 PST

HST 1 20580U 90037B 12098.84464576 .00002130 00000-0 14474-3 0 9784 2 20580 028.4693 243.8225 0003475 034.5412 325.5402 15.02352992 4141 ISS (ZARYA) 1 25544U 98067A 12099.38924769 .00014171 00000-0 19063-3 0 3326 2 25544 051.6418 111.7798 0007906 251.8329 312.6356 15.58126915767136 CXO 1 25867U 99040B 12100.16666667 -.00000006 00000-0 00000+0 0 7217 2 25867 071.9039 009.8463 8755768 277.9852 358.3741 00.37808874 8896 ____________________________________________________________________ These 2-Line ...Continue Reading

[list_settings.list_name] Current TLEs

April 7th 2012 PST

HST 1 20580U 90037B 12097.78174061 .00002130 00000-0 14474-3 0 9772 2 20580 028.4693 250.7742 0003476 023.2221 336.8545 15.02348806 3989 ISS (ZARYA) 1 25544U 98067A 12098.41599258 .00012397 00000-0 16783-3 0 3256 2 25544 051.6417 116.6624 0007887 248.5863 253.0576 15.58095525766987 CXO 1 25867U 99040B 12100.16666667 -.00000006 00000-0 00000+0 0 7217 2 25867 071.9039 009.8463 8755768 277.9852 358.3741 00.37808874 8896 ____________________________________________________________________ These 2-Line ...Continue Reading

[list_settings.list_name] Current TLEs

April 6th 2012 PST

HST 1 20580U 90037B 12096.78526494 .00002113 00000-0 14354-3 0 9769 2 20580 028.4699 257.2933 0003522 013.0074 347.0662 15.02345011 3837 ISS (ZARYA) 1 25544U 98067A 12097.33146991 .00016392 00000-0 21999-3 0 3151 2 25544 051.6423 122.1040 0007735 250.5363 283.8532 15.58058731766811 CXO 1 25867U 99040B 12097.54166667 .00000198 00000-0 00000+0 0 7209 2 25867 071.8772 010.0743 8751295 277.9593 001.1088 00.37805745 8887 ____________________________________________________________________ These 2-Line ...Continue Reading

[list_settings.list_name] Current TLEs

April 5th 2012 PST

HST 1 20580U 90037B 12095.78878554 .00002147 00000-0 14605-3 0 9750 2 20580 028.4704 263.8165 0003588 002.1668 357.8931 15.02341240 3685 ISS (ZARYA) 1 25544U 98067A 12096.22635039 .00017194 00000-0 21904-3 0 3094 2 25544 051.6417 127.6427 0013288 244.2436 204.7385 15.59344291766643 CXO 1 25867U 99040B 12094.87500000 .00000405 00000-0 00000+0 0 7194 2 25867 071.8499 010.2534 8748305 277.9772 358.0406 00.37801721 8877 ____________________________________________________________________ These 2-Line ...Continue Reading

[list_settings.list_name] Current TLEs

April 4th 2012 PST

HST 1 20580U 90037B 12094.85873655 .00002071 00000-0 14045-3 0 9747 2 20580 028.4709 269.8990 0003492 351.6759 008.3818 15.02337416 3546 ISS (ZARYA) 1 25544U 98067A 12095.19807755 .00017844 00000-0 22733-3 0 3021 2 25544 051.6423 132.8093 0013360 239.5397 193.3186 15.59310260766484 CXO 1 25867U 99040B 12094.87500000 .00000405 00000-0 00000+0 0 7194 2 25867 071.8499 010.2534 8748305 277.9772 358.0406 00.37801721 8877 ____________________________________________________________________ These 2-Line ...Continue Reading

[list_settings.list_name] Current TLEs

April 3rd 2012 PST

HST 1 20580U 90037B 12092.93219574 .00001821 00000-0 12199-3 0 9737 2 20580 028.4709 282.4975 0003349 329.3634 030.6712 15.02329484 3250 ISS (ZARYA) 1 25544U 98067A 12094.37193003 .00017617 00000-0 22478-3 0 2982 2 25544 051.6426 136.9612 0013442 237.0969 235.1220 15.59279460766354 CXO 1 25867U 99040B 12094.87500000 .00000405 00000-0 00000+0 0 7194 2 25867 071.8499 010.2534 8748305 277.9772 358.0406 00.37801721 8877 ____________________________________________________________________ These 2-Line ...Continue Reading

[list_settings.list_name] Current TLEs

April 2nd 2012 PST

HST 1 20580U 90037B 12092.93219574 .00001821 00000-0 12199-3 0 9737 2 20580 028.4709 282.4975 0003349 329.3634 030.6712 15.02329484 3250 ISS (ZARYA) 1 25544U 98067A 12093.42405093 .00015793 00000-0 20249-3 0 2901 2 25544 051.6422 141.7233 0013613 233.6864 314.2163 15.59242599766201 CXO 1 25867U 99040B 12092.25000000 .00000361 00000-0 00000+0 0 7189 2 25867 071.8214 010.4533 8748634 277.9701 000.6925 00.37805002 8861 ____________________________________________________________________ These 2-Line ...Continue Reading

[list_settings.list_name] Current TLEs

April 1st 2012 PST

HST 1 20580U 90037B 12091.00565454 .00001958 00000-0 13215-3 0 9725 2 20580 028.4713 295.1002 0003211 305.7081 054.3508 15.02323500 2965 ISS (ZARYA) 1 25544U 98067A 12092.38455505 .00821521 00000-0 93252-2 0 2859 2 25544 051.6385 146.9430 0014021 235.8154 233.3092 15.59404409766049 CXO 1 25867U 99040B 12092.25000000 .00000361 00000-0 00000+0 0 7189 2 25867 071.8214 010.4533 8748634 277.9701 000.6925 00.37805002 8861 ____________________________________________________________________ These 2-Line ...Continue Reading
  • This mailing list is a public mailing list - anyone may join or leave, at any time.
  • This mailing list is announce-only.

International Space Station (ISS) / Hubble Space Telescope (HST) / Chandra X-Ray Observatory Orbital Data via EMAIL

Privacy Policy:

Private list